Showing default

COSMOS 2252, 22687

Orbit data source: Space-Track

COSMOS 2252, 22687 is a payload satellite owned by VKS (CIS) in LEO that was launched on Thu, 24 Jun 1993 UTC via a TSIKLON-3 launch vehicle from the Plesetsk Missile And Space Complex (PKMTR). Payload-class satellites include a variety of spacecraft equipped with specific instruments for various scientific and technological missions. These include communications satellites like Starlink; space stations such as the ISS; scientific satellites like the Hubble; Earth observation satellites from companies like Planet Labs, Umbra, and HawkEye 360; GPS; miniature CubeSats for education and research; and military/defense satellites.

Loading next visibility...
Identifier
22687, 1993-038A
Orbit
LEO
Country
Flag of CISCIS
Related business
Manufacturer
NPO PM
Mission
Defense Communications
Bus & Motor
STRELA-3, Unknown motor
Mass
225 kg wet, 225 kg dry
Launch date (UTC)
1993-06-24 (33 years ago)
Launch vehicle
TSIKLON-3
Launch site
Plesetsk Missile And Space Complex (PKMTR)
Object type
Payload
Rocket body
Debris
Shape & HBR
Cyl, 0.8 m
Radar Cross Section
1.257 m², Medium (>0.1 m² and < 1m²)

Expand to show TLE details & history
Last TLE update: 13 hours ago

TLE from 13 hours ago
0 COSMOS 2252
1 22687U 93038A   26125.42952101  .00000025  00000-0  78217-4 0  9994
2 22687  82.5811 255.2761 0008879  77.8463 344.4593 12.63332009515122
Epoch: 2026-05-05T10:18Z
TLE epoch observation values (Epoch: 2026-05-05T10:18:30.615Z)
Latitude
61.46548°
Longitude
-108.87004°
Altitude
1,413.031 km
Speed
7.163 km/s
True Right ascension
17h 56m 14s
True Declination
61° 19' 59"
Sunlit
Object was in daylight at epoch
Visualization orbit readout
Latitude
Unknown
Longitude
Unknown
Altitude
Unknown
Speed
Unknown
Apparent Right ascension
Unknown
Apparent Declination
Unknown
Sunlit
N/A
Visualization observer readout
Local Sidereal Time
06:57:20
Azimuth
Unknown
Elevation
Unknown
Doppler factor
Unknown
Orbital elements
Apogee altitude
1,413.453 km
Perigee altitude
1,399.629 km
Semi-major axis
7,784.678 km
Eccentricity
0.00089
Inclination
82.5811°
RAAN
255.2761°
Arg. of periapsis
77.8463°
True anomaly
344.43201°
Mean anomaly
344.4593°
Eccentric anomaly
344.44566°
Mean motion
3.15996 °/min
Orbital period
113.93 mins
BSTAR
0.000078217
Loading maneuver chart data...
Computing Atmospheric mass density...
Loading historical data...
Loading historical data...
Loading historical data...
Loading historical data...
Loading historical data...
Loading historical data...
Loading historical data...

Documentation

Showing up to 5 results
|